STARLINK-2038 (47654 NORAD) Tracking and Keplerian Element Data
This shows tracking and keplerian element data for the satellite.
Feedback or suggestion? Click here.
Element | Value |
Catalog | 47654 |
Name | STARLINK-2038 |
Epoch Orbit | 177 |
Epoch Day | 59.91667824 |
Epoch Year | 2021 |
RAAN | 38.6827 |
Inclination | 53.0518 |
Eccentricity | 0.0001185 |
Argument of Perigee | 80.8659 |
Mean Anonmoly | 130.194 |
Mean Motion | 15.72772877 |
Decay Rate | -0.01056548 |
L1 | 1 47654U 21012AL 21059.91667824 -.01056548 00000-0 -85219-2 0 9990 |
L2 | 2 47654 53.0518 38.6827 0001185 80.8659 130.1940 15.72772877 1771 |
Live tracking and technical data element details for STARLINK-2038 (NORAD 47654). STARLINK-2038 can be tracked NOW for your location showing map with azimuth and elevation plus other details from your city location.
Track the satellite on the map from your city or location and see movement details for azimuth, elevation, latitude, longitude, range, height, and movement on the map or in text.
IsCatalogInMostPopularTable: catalog: 47654, numindb: 4
Update: records affected: 1
GetName: 47654 STARLINK-2038
Hit Count: updated at: Mon, 01 Mar 2021 15:50:57 GMT